Flag for Australia Weather past 2 weeks in Canberra, Australian Capital Territory, Australia

Now
48 °F

Scattered clouds.


Feels Like: 40 °F
Forecast: 35 / 58 °F
Wind: 24 mph from South

Location: Canberra Airport

Current Time: Sep 3, 2014 at 10:50:36 AM

Latest Report: Sep 3, 2014 at 10:00 AM


Visibility: N/A

Pressure: 30.01 "Hg

Humidity: 54%

Dew point: 32 °F

Location of CanberraLocation

Historic Weather in Canberra — Graph

°F

Canberra temperature yesterday

Maximum temperature yesterday: 52 °F (at 12:00 AM)
Minimum temperature yesterday: 43 °F (at 7:30 AM)
Average temperature yesterday: 47 °F

Past Weeks' High & Low Weather Summary

 TemperatureHumidityPressure
High64 °F (Sep 1, 3:30 PM)100% (Aug 21, 1:00 AM)30.48 "Hg (Aug 21, 1:00 AM)
Low30 °F (Aug 20, 5:30 AM)27% (Aug 20, 3:30 PM)29.77 "Hg (Sep 2, 4:30 AM)
Average47 °F77%30.24 "Hg
* Reported Aug 19 9:00 AM — Sep 3 9:30 AM, Canberra, Weather by CustomWeather, © 2014

Note: Actual official high and low records may vary slightly from our data, if they occured in-between our weather recording intervals... More about our weather records

Advertising

Canberra weather history for previous 24 hours

 ConditionsComfort  
Time TempWeatherWind HumidityBarometerVisibility
9:30 AM
Sep 3
48 °FScattered clouds.25 mph58%30.04 "HgN/A
9:00 AM46 °FPassing clouds.22 mph57%30.04 "HgN/A
8:48 AM46 °FPassing clouds.18 mph57%30.04 "HgN/A
8:30 AM46 °FPassing clouds.17 mph57%30.01 "HgN/A
8:00 AM43 °FPassing clouds.10 mph57%30.04 "HgN/A
7:30 AM41 °FPassing clouds.6 mph57%30.04 "HgN/A
7:00 AM39 °FPassing clouds.13 mph65%30.01 "HgN/A
6:30 AM37 °FSunny.6 mph65%30.01 "Hg10 mi
6:00 AM37 °FSunny.6 mph65%30.01 "Hg10 mi
5:30 AM37 °FSunny.5 mph65%30.01 "Hg10 mi
5:00 AM37 °FClear.6 mph65%30.01 "Hg10 mi
4:30 AM39 °FClear.10 mph61%29.98 "Hg10 mi
4:00 AM39 °FClear.15 mph65%29.98 "HgN/A
3:30 AM41 °FClear.15 mph66%29.98 "HgN/A
3:00 AM41 °FClear.13 mph70%29.98 "HgN/A
2:30 AM41 °FClear.12 mph70%29.98 "HgN/A
2:00 AM43 °FClear.20 mph66%29.98 "HgN/A
1:30 AM43 °FClear.21 mph66%29.98 "HgN/A
1:00 AM43 °FClear.20 mph66%29.98 "HgN/A
12:30 AM43 °FClear.17 mph66%29.98 "HgN/A
12:00 AM43 °FClear.17 mph71%29.98 "HgN/A
11:30 PM
Sep 2
43 °FPassing clouds.22 mph66%29.98 "HgN/A
11:00 PM43 °FClear.20 mph71%29.98 "HgN/A
10:00 PM43 °FPassing clouds.21 mph71%29.98 "HgN/A
9:30 PM45 °FOvercast.23 mph61%29.98 "HgN/A
9:00 PM45 °FMostly cloudy.18 mph61%29.98 "HgN/A
8:00 PM45 °FPassing clouds.14 mph66%29.95 "HgN/A
7:30 PM43 °FPartly cloudy.10 mph76%29.95 "HgN/A
7:00 PM43 °FPartly cloudy.15 mph76%29.92 "HgN/A
6:30 PM43 °FSprinkles. Partly cloudy.12 mph76%29.92 "HgN/A
6:00 PM43 °FPartly cloudy.15 mph81%29.92 "HgN/A
5:30 PM43 °FScattered showers. Partly cloudy.15 mph81%29.89 "HgN/A
5:00 PM43 °FSprinkles. Passing clouds.20 mph81%29.89 "HgN/A
4:30 PM45 °FSprinkles. Partly sunny.26 mph76%29.89 "HgN/A
4:00 PM50 °FSprinkles. Broken clouds.17 mph54%29.86 "HgN/A
3:30 PM50 °FScattered showers. Broken clouds.15 mph58%29.86 "HgN/A
3:00 PM52 °FScattered showers. Broken clouds.22 mph50%29.83 "HgN/A
2:30 PM50 °FSprinkles. Broken clouds.6 mph67%29.83 "HgN/A
2:00 PM48 °FScattered showers. Broken clouds.9 mph71%29.83 "HgN/A
1:30 PM52 °FScattered showers. Partly sunny.10 mph54%29.80 "HgN/A
1:00 PM52 °FScattered showers. Partly sunny.14 mph54%29.80 "HgN/A
12:30 PM52 °FScattered showers. Partly sunny.14 mph54%29.80 "HgN/A
12:00 PM52 °FScattered showers. Partly sunny.15 mph54%29.83 "HgN/A
11:30 AM52 °FScattered showers. Broken clouds.17 mph54%29.83 "HgN/A
11:00 AM52 °FPartly sunny.8 mph67%29.83 "HgN/A
10:30 AM52 °FPartly sunny.10 mph67%29.83 "HgN/A
10:00 AM52 °FScattered clouds.17 mph58%29.83 "HgN/A
Weather by CustomWeather, © 2014

See weather overviewHow to use our weather pages